Lid_Strength_Index
-0 -0 0 3 11 12 14 11 9 9 9 6 5 7 8 7 9 13 2 1 0 0 -0 -1 -2 -1 -1 -1 -1 -1 -1 -1 -1 -1 -1 -1 -1 -1 -1 -1 -1 -1 -1 -1 -1 -1 -1 -1 -1
2 1 2 6 13 16 15 9 10 8 6 5 5 6 7 9 5 4 3 1 0 -0 -0 -0 -2 -2 -1 -1 -1 -1 -1 -1 -1 -1 -1 -1 -1 -1 -1 -1 -1 -0 -1 -1 -1 -1 -1 -1 -1
2 2 7 10 13 16 15 9 8 7 5 6 6 5 6 7 4 3 1 0 -0 0 -0 -0 -1 -1 -1 -1 -1 -1 -1 -2 -2 -1 -1 -1 -1 -1 -1 -1 -1 -1 -1 -1 -1 -1 -1 -1 -1
2 4 6 12 14 12 11 9 7 7 6 5 6 8 5 2 3 2 0 0 0 0 -0 -1 -1 -1 -1 -1 -1 -1 -1 -2 -2 -2 -1 -1 -1 -1 -1 -1 -1 -1 -1 -1 -1 -1 -1 -1 -1
2 6 12 13 13 11 9 8 6 7 7 6 6 8 7 3 1 1 1 0 1 1 -0 -0 -1 -1 -1 -1 -1 -1 -1 -1 -2 -2 -1 -1 -1 -1 -1 -1 -1 -1 -1 -1 -1 -1 -1 -1 -1
7 7 13 15 13 10 9 7 6 7 6 6 7 7 7 2 2 1 1 1 0 0 -0 -0 -1 -1 -1 -1 -1 -1 -1 -1 -2 -2 -2 -1 -2 -1 -1 -1 -1 -1 -1 -1 -1 -1 -1 -1 -1
8 10 12 13 13 12 9 6 6 7 7 7 5 9 6 4 2 1 1 0 0 0 -0 -0 0 -1 -2 -1 -2 -1 -2 -2 -2 -2 -1 -1 -1 -1 -1 -1 -1 -1 -1 -1 -1 -1 -1 -1 -1
7 9 12 12 13 12 8 6 5 6 7 3 4 9 8 4 1 1 1 1 0 0 0 0 1 0 -0 -0 -2 -2 -2 -2 -2 -1 -2 -1 -1 -1 -1 -1 -1 -1 -1 -1 -1 -1 -1 -2 -2
4 11 14 13 12 11 7 7 5 3 5 5 4 5 4 2 1 2 2 2 1 1 0 -0 -0 -0 -0 -1 -1 -2 -2 -2 -1 -1 0 -1 -1 -1 -1 -1 -1 -1 -1 -1 -1 -1 -2 -2 -2
8 12 12 8 9 9 8 6 5 6 6 6 5 4 3 2 3 3 3 3 3 2 1 0 0 -0 -0 -1 -1 -0 -1 -1 -1 0 -0 -1 -0 -0 -1 -1 -1 -1 -2 -1 -1 -1 -2 -1 -1
8 11 8 8 7 7 8 7 6 6 8 6 6 5 4 3 3 3 3 3 3 2 1 0 0 -0 -0 0 -0 -0 -0 0 -1 -1 -1 -1 -1 -0 -0 0 0 0 -1 -0 -1 -1 -1 -1 -0
10 7 7 7 6 7 8 6 7 6 6 4 4 3 4 4 4 4 3 3 2 2 1 0 -0 -0 -0 -0 -0 -0 -0 0 -0 -0 -1 0 0 0 0 0 0 0 -0 0 0 0 -0 -0 0
9 7 6 6 6 6 6 8 8 7 4 3 3 3 4 3 3 3 2 2 2 2 1 1 1 0 -0 -0 0 0 -0 -0 -0 -0 0 -0 -0 0 0 0 0 0 1 0 1 0 -0 0 -0
7 7 7 7 7 6 8 8 7 6 5 4 4 4 4 3 3 3 3 3 2 2 1 1 2 1 -0 -0 0 -0 -0 0 -0 -0 -0 -0 -0 0 0 0 1 4 2 0 1 1 0 0 0
7 9 8 7 7 8 7 10 9 6 5 6 5 4 4 3 3 3 3 3 2 2 1 1 1 0 1 0 -0 0 -0 -0 0 0 -0 0 -0 0 1 0 5 2 0 3 1 -0 0 1 1
10 10 13 8 7 7 8 14 9 6 6 7 5 4 4 4 3 3 2 2 2 1 2 1 0 0 0 0 0 1 0 -0 -0 0 0 0 0 -0 0 0 0 1 1 0 1 0 1 1 2
11 14 14 11 7 8 8 12 8 6 6 7 6 5 5 4 3 3 2 2 2 1 1 1 1 1 1 0 -0 1 1 0 0 0 0 0 0 -0 3 1 0 0 0 1 2 1 1 1 3
13 13 12 13 10 8 10 10 8 7 7 7 6 6 5 5 4 3 2 2 1 1 1 1 1 1 1 0 0 0 0 0 0 0 0 0 0 1 3 3 1 0 0 1 1 1 1 1 1
10 11 12 11 8 10 11 11 10 7 7 7 7 6 6 5 4 3 2 2 2 1 1 1 1 1 1 1 2 2 2 1 1 0 0 0 0 0 0 1 1 0 1 1 1 1 1 1 3
10 11 12 10 9 10 11 12 9 8 7 7 7 7 6 5 5 4 3 2 2 2 2 2 1 1 1 1 1 1 1 1 0 0 0 0 0 0 0 0 1 1 0 2 1 1 2 1 3
10 11 11 12 10 9 11 13 11 8 7 6 6 5 5 6 5 4 3 3 2 2 2 2 1 1 1 1 1 1 1 1 1 1 1 0 0 0 0 0 1 3 3 4 5 2 2 2 2
13 7 9 9 11 16 10 19 13 10 10 8 6 6 6 5 5 4 4 3 3 2 1 1 1 1 1 1 2 2 2 3 2 1 1 1 0 0 0 0 1 4 4 3 6 2 1 2 3
10 6 8 8 11 13 13 14 14 10 11 10 7 6 6 5 5 4 4 3 2 2 2 1 1 1 1 1 1 1 2 2 2 1 1 1 0 0 0 1 1 4 3 4 4 3 1 1 2
7 8 8 9 12 16 13 13 15 13 11 10 8 6 6 5 5 4 3 3 3 2 2 1 2 2 1 1 1 1 2 2 3 2 2 1 1 1 0 1 0 1 2 3 2 1 1 1 1
9 12 17 17 18 18 11 13 14 10 9 8 8 7 6 5 5 5 4 4 3 3 3 2 2 2 1 1 1 1 2 1 2 2 2 2 1 1 1 1 1 1 0 0 1 1 1 1 1
11 12 16 20 20 17 12 16 13 8 7 7 6 6 5 5 4 5 4 4 3 3 2 2 2 2 2 1 1 1 1 1 1 1 2 1 1 1 0 0 0 0 0 1 1 1 1 1 1
10 12 9 13 14 16 13 11 9 7 8 7 7 6 6 5 5 5 4 3 3 3 2 2 2 2 2 2 1 1 1 1 1 1 1 1 1 0 0 1 0 0 0 0 0 1 1 1 2
10 10 13 13 16 19 17 15 13 10 9 8 8 8 7 5 5 4 4 4 3 2 2 2 2 2 2 1 1 1 1 1 1 1 1 1 0 0 2 2 2 1 1 0 1 1 1 1 1
11 13 12 13 12 18 19 16 9 9 9 9 8 7 6 6 5 4 4 3 3 2 2 2 2 2 2 1 1 1 1 1 1 1 1 2 1 0 3 0 1 1 1 0 1 1 1 1 1
9 11 11 14 14 15 16 15 8 7 8 8 7 7 6 5 5 4 4 3 3 3 3 2 2 2 2 2 2 1 1 1 1 1 1 2 4 3 1 0 3 2 1 1 1 1 1 2 1